Location: Ferchesar
(52.6477°N, 12.4298°E)
Time: 21:31:31
(UTC+02:00)

Transit 4A - Pass Details

Date: 26 February 2021
Orbit: 868 x 976 km, 66.8° (Epoch: 10 April)

Event Time Altitude Azimuth Distance (km) Brightness Sun altitude
Rises 11:24:23 0° 193° (SSW) 3,660 11.9 27.5°
Reaches altitude 10° 11:27:03 10° 188° (S) 2,713 11.6 27.6°
Maximum altitude 11:33:03 46° 117° (ESE) 1,280 9.6 27.9°
Drops below altitude 10° 11:38:58 10° 47° (NE) 2,682 10.1 28.1°
Sets 11:41:35 0° 41° (NE) 3,616 10.7 28.2°
